Current Version              Previous Version:    01  02  03  04  05  06  07  08  09  10  11  12  13  14  15  16  17  18  19  20  21  22  23  24  25  26  27  28  29  30  
   31  32  33  34  35  36  37  38  39  40  41  42  43  44  45  46  47  48  49  50  51  52  53  54  55  56  57  58  59  60  

[Printable]
051
ASUS44 KFWD 260002
RWRTX
NORTH TEXAS HOURLY WEATHER ROUNDUP
NATIONAL WEATHER SERVICE FORT WORTH TX
ISSUED BY NWS SHREVEPORT LA
600 PM CST TUE NOV 25 2014

NOTE: "FAIR" INDICATES FEW OR NO CLOUDS BELOW 12,000 FEET WITH NO
SIGNIFICANT WEATHER AND/OR OBSTRUCTIONS TO VISIBILITY.

TXZ118-119-260100-
DALLAS/FORT WORTH METROPLEX

CITY           SKY/WX    TMP DP  RH WIND       PRES   REMARKS
DFW AIRPORT    PTCLDY    55  28  35 W8        30.16S
6HR MIN TEMP:  54; 6HR MAX TEMP:  61;

DALLAS LOVE    CLEAR     57  28  33 SW5       30.17R
6HR MIN TEMP:  57; 6HR MAX TEMP:  63;

FTW MEACHAM    CLEAR     56  28  34 W3        30.16S
6HR MIN TEMP:  56; 6HR MAX TEMP:  62;

DAL-EXECUTIVE  CLEAR     53  25  33 W5        30.16S
6HR MIN TEMP:  53; 6HR MAX TEMP:  65;

FTW-ALLIANCE   PTCLDY    50  28  42 SW5       30.16S
6HR MIN TEMP:  50; 6HR MAX TEMP:  61;

FTW-NAS-JRB    CLEAR     59  26  28 SW5       30.21S
6HR MIN TEMP:  58; 6HR MAX TEMP:  65;

FTW-SPINKS     CLEAR     55  27  33 W3        30.18S
ARLINGTON      CLEAR     57  25  29 W5        30.17S
6HR MIN TEMP:  57; 6HR MAX TEMP:  64;

ADDISON        CLEAR     57  25  28 CALM      30.17R
$$

TXZ091>094-102>105-117-120-121-131>134-260100-
NORTH CENTRAL TEXAS

CITY           SKY/WX    TMP DP  RH WIND       PRES   REMARKS
SHRMAN/DENISON CLEAR     50  28  42 W6        30.17R
6HR MIN TEMP:  50; 6HR MAX TEMP:  60;

DENTON         CLEAR     54  26  34 W3        30.16S
6HR MIN TEMP:  54; 6HR MAX TEMP:  60;

MCKINNEY       CLEAR     54  26  34 W5        30.16S
6HR MIN TEMP:  54; 6HR MAX TEMP:  61;

TERRELL        CLEAR     56  26  31 NW5       30.17R
6HR MIN TEMP:  55; 6HR MAX TEMP:  67;

$$

TXZ083>090-098>101-113>116-127>130-139>142-154-155-260100-
WESTERN NORTH TEXAS

CITY           SKY/WX    TMP DP  RH WIND       PRES   REMARKS
WICHITA FALLS  CLEAR     47  27  45 S8        30.11F
6HR MIN TEMP:  47; 6HR MAX TEMP:  56;

ABILENE        CLEAR     53  18  25 SW7       30.15F
6HR MIN TEMP:  52; 6HR MAX TEMP:  60;

ABILENE-DYESS  CLEAR     51  22  31 SW6       30.14F
6HR MIN TEMP:  51; 6HR MAX TEMP:  60;

MINERAL WELLS  CLEAR     54  27  35 S5        30.15S
STEPHENVILLE   CLEAR     54  24  31 W5        30.20S
6HR MIN TEMP:  54; 6HR MAX TEMP:  61;

$$

TXZ143>147-156>162-174-175-260100-
CENTRAL TEXAS

CITY           SKY/WX    TMP DP  RH WIND       PRES   REMARKS
WACO           CLEAR     51  30  44 SW3       30.18S
6HR MIN TEMP:  50; 6HR MAX TEMP:  66;

WACO-MCGREGOR  CLEAR     54  28  37 SW5       30.20S
6HR MIN TEMP:  54; 6HR MAX TEMP:  66;

CORSICANA      CLEAR     58  24  27 SW6       30.18S HAZE
6HR MIN TEMP:  57; 6HR MAX TEMP:  66;

TEMPLE         CLEAR     57  27  30 W5        30.19S
6HR MIN TEMP:  57; 6HR MAX TEMP:  66;

KILLEEN-GRAY   CLEAR     55  29  37 W5        30.19S
6HR MIN TEMP:  54; 6HR MAX TEMP:  63;

KILLEEN-SKYLRK CLEAR     55  27  33 W3        30.18R
6HR MIN TEMP:  55; 6HR MAX TEMP:  64;

FORT HOOD      CLEAR     61  28  28 CALM      30.19R
6HR MIN TEMP:  61; 6HR MAX TEMP:  67;

$$

TXZ095>097-106>112-122>126-135>138-148>153-164>167-260100-
EAST TEXAS

CITY           SKY/WX    TMP DP  RH WIND       PRES   REMARKS
PARIS          CLEAR     54  25  32 CALM      30.17R
6HR MIN TEMP:  54; 6HR MAX TEMP:  61;

TYLER          CLEAR     57  28  33 W5        30.17R
6HR MIN TEMP:  57; 6HR MAX TEMP:  65;

LONGVIEW       CLEAR     51  34  52 S3        30.16R
6HR MIN TEMP:  51; 6HR MAX TEMP:  63;

JACKSONVILLE   CLEAR     57  26  30 SW3       30.19S
NACOGDOCHES    CLEAR     46  37  71 CALM      30.20S
6HR MIN TEMP:  46; 6HR MAX TEMP:  61;

LUFKIN         CLEAR     51  40  65 CALM      30.20S
6HR MIN TEMP:  51; 6HR MAX TEMP:  65;

$$

SUPPLEMENTAL OBSERVATIONS (CENTRAL)

CITY           SKY/WX    TMP DP  RH WIND       PRES   REMARKS
$$

SUPPLEMENTAL OBSERVATIONS (WEST)

CITY           SKY/WX    TMP DP  RH WIND       PRES   REMARKS
$$

SUPPLEMENTAL OBSERVATIONS (EAST)

CITY           SKY/WX    TMP DP  RH WIND       PRES   REMARKS
$$

SUPPLEMENTAL OBSERVATIONS ARE A COLLECTION OF AUTOMATED INSTRUMENTS
THAT ARE MAINTAINED BY A VARIETY OF FEDERAL AND STATE AGENCIES.
CERTAIN ELEMENTS...SUCH AS HUMIDITY VALUES AND SUSTAINED WIND
SPEEDS...MAY BE ESTIMATED.